Regional Weather Roundup
Issued by NWS

Home | Current Version | Previous Version | Graphics & Text | Print | Product List | Glossary On
Versions: 1 2 3 4 5 6 7 8 9 10 11 12 13 14 15 16 17 18 19 20 21 22 23 24 25 26 27 28 29 30 31 32 33 34 35 36 37 38 39 40 41 42 43 44 45 46 47 48 49 50
360
ASUS44 KLIX 180711
RWRLA
LOUISIANA WEATHER ROUNDUP
NATIONAL WEATHER SERVICE NEW ORLEANS LA
200 AM CDT SAT APR 18 2015

NOTE: "FAIR" INDICATES FEW OR NO CLOUDS BELOW 12,000 FEET WITH NO
      SIGNIFICANT WEATHER AND/OR OBSTRUCTIONS TO VISIBILITY.
      SKY/WX - SKY CONDITION AND SIGNIFICANT WEATHER.
      TMP - AIR TEMPERATURE.    DP   - DEWPOINT TEMPERATURE.
      RH  - RELATIVE HUMIDITY.  PRES - PRESSURE.
      HX  - HEAT INDEX.         WCI  - WIND CHILL INDEX.

*  THESE STATIONS ARE NOT NWS OR FAA STATIONS AND ARE NOT UNDER
   NWS QUALITY CONTROL.

LAZ040-048-061>063-065-066-069-180800-
SOUTHEAST LOUISIANA

CITY           SKY/WX    TMP DP  RH WIND       PRES   REMARKS
N.O. AUDUBON     N/A     73  72  96 MISG        N/A
N.O. INTL ARPT LGT RAIN  74  70  87 CALM      29.91F
N.O. LAKEFRONT CLOUDY    77  71  82 CALM      29.92R
SLIDELL        CLOUDY    72  72 100 SW3       29.92R
BATON ROUGE    LGT RAIN  70  69  97 CALM      29.96R FOG
BOOTHVILLE     CLOUDY    72  68  87 CALM      29.93S
BELLE CHASSE   CLOUDY    71  68  90 CALM      29.91S
BOGALUSA*        N/A     69  66  88 CALM      29.93F
GALLIANO*      DRIZZLE   72  71  95 CALM      29.91F
NEW ROADS*     TSTM      71  70  97 CALM      29.96R
GONZALES*      RAIN      71  71 100 SW6       29.95R
HAMMOND*       CLOUDY    70  66  88 CALM      29.95S
HOUMA*         LGT RAIN  73  72  98 NW3       29.92S
PORT FOURCHON* CLOUDY    75  70  83 S5        29.94F

$$

LAZ041-044-053-054-180800-
SOUTHWEST LOUISIANA

CITY           SKY/WX    TMP DP  RH WIND       PRES   REMARKS
LAKE CHARLES   TSTM      67  66  97 N7        29.94S FOG
LAFAYETTE      LGT RAIN  71  70  96 SW5       29.94F
PATTERSON      CLOUDY    70  68  94 NE7       29.94F THUNDER
SALT POINT       N/A     71  70  96 VRB3      29.92F
NEW IBERIA     LGT RAIN  70  68  93 SE3       29.94F
CHENAULT AIRPK CLOUDY    67  66  96 SW9       29.97R

$$

LAZ027-028-180800-
CENTRAL LOUISIANA

CITY           SKY/WX    TMP DP  RH WIND       PRES   REMARKS
FORT POLK      LGT RAIN  69  67  95 SE5       29.93S FOG
ALEXANDRIA INT LGT RAIN  70  69  97 E3        29.93S FOG
ALEXANDRIA     RAIN      68  67  96 CALM      29.96R

$$

LAZ001-002-180800-
NORTHWEST LOUISIANA

CITY           SKY/WX    TMP DP  RH WIND       PRES   REMARKS
SHREVEPORT     CLOUDY    69  66  90 CALM      29.93S
BARKSDALE AFB  CLOUDY    69  66  89 CALM      29.93R
DTN SHREVEPORT CLOUDY    69  63  81 CALM      29.94R

$$

LAZ014-016-180800-
NORTHEAST LOUISIANA

CITY           SKY/WX    TMP DP  RH WIND       PRES   REMARKS
MONROE         CLOUDY    67  64  90 NE3       29.94F
TALLULAH       CLOUDY    67  64  90 E6        29.94F

$$




USA.gov is the U.S. government's official web portal to all federal, state and local government web resources and services.